• En Estados Unidos
  • Lista de países
  • Para 7 días
  • Temperatura del agua
  • Mapa Satelital
  • El tiempo en el mapa
  • Informadores
  • user-avatar
    Iniciar sesión

    Tiempo cada hora Saurimo

    Hoy, 24 Junio, Domingo

    Tiempo Temperatura Precipitaciones Viento Presión Humedad
    00:00 +19°C° 0 mm 1 mps 671 mmHg 46%
    01:00 +19°C° 0 mm 1 mps 671 mmHg 47%
    02:00 +19°C° 0 mm 1 mps 671 mmHg 47%
    03:00 +18°C° 0 mm 2 mps 671 mmHg 46%
    04:00 +17°C° 0 mm 2 mps 671 mmHg 46%
    05:00 +18°C° 0 mm 2 mps 671 mmHg 48%
    06:00 +18°C° 0 mm 2 mps 672 mmHg 49%
    07:00 +18°C° 0 mm 3 mps 672 mmHg 51%
    08:00 +21°C° 0 mm 3 mps 673 mmHg 46%
    09:00 +25°C° 0 mm 3 mps 673 mmHg 41%
    10:00 +27°C° 0 mm 3 mps 674 mmHg 37%
    11:00 +30°C° 0 mm 2 mps 673 mmHg 31%
    12:00 +32°C° 0 mm 2 mps 673 mmHg 26%
    13:00 +34°C° 0 mm 1 mps 673 mmHg 21%
    14:00 +33°C° 0 mm 1 mps 672 mmHg 21%
    15:00 +32°C° 0 mm 1 mps 672 mmHg 22%
    16:00 +31°C° 0 mm 1 mps 671 mmHg 23%
    17:00 +29°C° 0 mm 1 mps 671 mmHg 28%
    18:00 +26°C° 0 mm 1 mps 671 mmHg 33%
    19:00 +23°C° 0 mm 1 mps 671 mmHg 38%
    20:00 +23°C° 0 mm 1 mps 671 mmHg 39%
    21:00 +22°C° 0 mm 1 mps 671 mmHg 40%
    22:00 +21°C° 0 mm 1 mps 671 mmHg 42%
    23:00 +21°C° 0 mm 1 mps 671 mmHg 43%

    Mañana, 25 Junio, Lunes

    Tiempo Temperatura Precipitaciones Viento Presión Humedad
    00:00 +20°C° 0 mm 1 mps 671 mmHg 45%
    01:00 +19°C° 0 mm 1 mps 671 mmHg 47%
    02:00 +19°C° 0 mm 1 mps 671 mmHg 48%
    03:00 +18°C° 0 mm 1 mps 670 mmHg 49%
    04:00 +17°C° 0 mm 2 mps 670 mmHg 50%
    05:00 +17°C° 0 mm 2 mps 671 mmHg 50%
    06:00 +18°C° 0 mm 2 mps 671 mmHg 49%
    07:00 +18°C° 0 mm 2 mps 671 mmHg 49%
    08:00 +21°C° 0 mm 3 mps 672 mmHg 42%
    09:00 +26°C° 0 mm 3 mps 673 mmHg 35%
    10:00 +29°C° 0 mm 3 mps 674 mmHg 28%
    11:00 +31°C° 0 mm 2 mps 673 mmHg 25%
    12:00 +32°C° 0 mm 2 mps 673 mmHg 22%
    13:00 +35°C° 0 mm 2 mps 672 mmHg 18%
    14:00 +34°C° 0 mm 2 mps 672 mmHg 19%
    15:00 +34°C° 0 mm 2 mps 671 mmHg 19%
    16:00 +32°C° 0 mm 1 mps 671 mmHg 19%
    17:00 +30°C° 0 mm 1 mps 671 mmHg 23%
    18:00 +27°C° 0 mm 1 mps 671 mmHg 27%
    19:00 +24°C° 0 mm 1 mps 670 mmHg 31%
    20:00 +24°C° 0 mm 1 mps 671 mmHg 32%
    21:00 +23°C° 0 mm 1 mps 671 mmHg 33%
    22:00 +21°C° 0 mm 2 mps 671 mmHg 34%
    23:00 +21°C° 0 mm 2 mps 671 mmHg 35%

    Pasado mañana, 26 Junio, Martes

    Tiempo Temperatura Precipitaciones Viento Presión Humedad
    00:00 +20°C° 0 mm 2 mps 671 mmHg 36%
    01:00 +19°C° 0 mm 2 mps 671 mmHg 37%
    02:00 +20°C° 0 mm 1 mps 670 mmHg 38%
    03:00 +19°C° 0 mm 1 mps 670 mmHg 40%
    04:00 +19°C° 0 mm 1 mps 670 mmHg 41%
    05:00 +19°C° 0 mm 1 mps 670 mmHg 41%
    06:00 +19°C° 0 mm 2 mps 671 mmHg 41%
    07:00 +19°C° 0 mm 2 mps 671 mmHg 41%
    08:00 +23°C° 0 mm 2 mps 672 mmHg 36%
    09:00 +27°C° 0 mm 2 mps 673 mmHg 30%
    10:00 +30°C° 0 mm 3 mps 673 mmHg 25%
    11:00 +31°C° 0 mm 3 mps 673 mmHg 22%
    12:00 +34°C° 0 mm 2 mps 673 mmHg 20%
    13:00 +35°C° 0 mm 2 mps 672 mmHg 17%
    14:00 +35°C° 0 mm 2 mps 672 mmHg 17%
    15:00 +34°C° 0 mm 2 mps 671 mmHg 18%
    16:00 +34°C° 0 mm 2 mps 670 mmHg 18%
    17:00 +30°C° 0 mm 2 mps 670 mmHg 22%
    18:00 +27°C° 0 mm 2 mps 670 mmHg 25%
    19:00 +25°C° 0 mm 2 mps 671 mmHg 29%
    20:00 +24°C° 0 mm 2 mps 671 mmHg 30%
    21:00 +23°C° 0 mm 2 mps 671 mmHg 32%
    22:00 +21°C° 0 mm 2 mps 671 mmHg 33%
    23:00 +21°C° 0 mm 2 mps 671 mmHg 33%

    27 Junio, Miércoles

    Tiempo Temperatura Precipitaciones Viento Presión Humedad
    00:00 +20°C° 0 mm 2 mps 671 mmHg 34%
    01:00 +20°C° 0 mm 2 mps 670 mmHg 34%
    02:00 +20°C° 0 mm 2 mps 670 mmHg 35%
    03:00 +19°C° 0 mm 2 mps 670 mmHg 36%
    04:00 +19°C° 0 mm 2 mps 670 mmHg 38%
    05:00 +19°C° 0 mm 3 mps 670 mmHg 37%
    06:00 +19°C° 0 mm 3 mps 671 mmHg 37%
    07:00 +20°C° 0 mm 3 mps 672 mmHg 36%
    08:00 +24°C° 0 mm 3 mps 672 mmHg 31%
    09:00 +27°C° 0 mm 4 mps 673 mmHg 25%
    10:00 +32°C° 0 mm 4 mps 674 mmHg 20%
    11:00 +33°C° 0 mm 4 mps 673 mmHg 18%
    12:00 +34°C° 0 mm 3 mps 672 mmHg 17%
    13:00 +35°C° 0 mm 2 mps 672 mmHg 15%
    14:00 +35°C° 0 mm 2 mps 671 mmHg 16%
    15:00 +34°C° 0 mm 2 mps 671 mmHg 16%
    16:00 +34°C° 0 mm 2 mps 670 mmHg 16%
    17:00 +30°C° 0 mm 2 mps 671 mmHg 20%
    18:00 +27°C° 0 mm 2 mps 671 mmHg 24%
    19:00 +25°C° 0 mm 2 mps 671 mmHg 27%
    20:00 +24°C° 0 mm 2 mps 671 mmHg 29%
    21:00 +23°C° 0 mm 2 mps 671 mmHg 30%
    22:00 +23°C° 0 mm 2 mps 671 mmHg 31%
    23:00 +21°C° 0 mm 3 mps 671 mmHg 31%

    28 Junio, Jueves

    Tiempo Temperatura Precipitaciones Viento Presión Humedad
    00:00 +21°C° 0 mm 3 mps 671 mmHg 32%
    01:00 +21°C° 0 mm 3 mps 671 mmHg 32%
    02:00 +20°C° 0 mm 3 mps 671 mmHg 33%
    03:00 +20°C° 0 mm 3 mps 670 mmHg 35%
    04:00 +20°C° 0 mm 3 mps 670 mmHg 36%
    05:00 +20°C° 0 mm 3 mps 671 mmHg 36%
    06:00 +20°C° 0 mm 4 mps 672 mmHg 35%
    07:00 +21°C° 0 mm 4 mps 672 mmHg 35%
    08:00 +23°C° 0 mm 4 mps 673 mmHg 31%
    09:00 +27°C° 0 mm 4 mps 673 mmHg 28%
    10:00 +30°C° 0 mm 4 mps 673 mmHg 24%
    11:00 +32°C° 0 mm 4 mps 673 mmHg 21%
    12:00 +34°C° 0 mm 3 mps 672 mmHg 19%
    13:00 +35°C° 0 mm 2 mps 672 mmHg 17%
    14:00 +35°C° 0 mm 2 mps 671 mmHg 17%
    15:00 +34°C° 0 mm 2 mps 671 mmHg 17%
    16:00 +34°C° 0 mm 2 mps 671 mmHg 17%
    17:00 +30°C° 0 mm 2 mps 671 mmHg 20%
    18:00 +28°C° 0 mm 2 mps 671 mmHg 24%
    19:00 +25°C° 0 mm 2 mps 671 mmHg 27%
    20:00 +25°C° 0 mm 2 mps 671 mmHg 28%
    21:00 +24°C° 0 mm 2 mps 671 mmHg 30%
    22:00 +23°C° 0 mm 2 mps 671 mmHg 31%
    23:00 +21°C° 0 mm 2 mps 671 mmHg 32%

    29 Junio, Viernes

    Tiempo Temperatura Precipitaciones Viento Presión Humedad
    00:00 +20°C° 0 mm 2 mps 670 mmHg 32%
    01:00 +20°C° 0 mm 2 mps 670 mmHg 33%
    02:00 +19°C° 0 mm 2 mps 670 mmHg 35%
    03:00 +19°C° 0 mm 2 mps 670 mmHg 36%
    04:00 +18°C° 0 mm 2 mps 670 mmHg 37%
    05:00 +19°C° 0 mm 3 mps 670 mmHg 37%
    06:00 +19°C° 0 mm 3 mps 671 mmHg 36%
    07:00 +20°C° 0 mm 3 mps 671 mmHg 35%
    08:00 +24°C° 0 mm 3 mps 672 mmHg 32%
    09:00 +26°C° 0 mm 3 mps 672 mmHg 28%
    10:00 +29°C° 0 mm 4 mps 673 mmHg 25%
    11:00 +30°C° 0 mm 3 mps 672 mmHg 22%
    12:00 +32°C° 0 mm 2 mps 672 mmHg 20%
    13:00 +35°C° 0 mm 2 mps 671 mmHg 18%
    14:00 +34°C° 0 mm 2 mps 671 mmHg 18%
    15:00 +33°C° 0 mm 1 mps 671 mmHg 18%
    16:00 +33°C° 0 mm 1 mps 670 mmHg 18%
    17:00 +30°C° 0 mm 1 mps 670 mmHg 22%
    18:00 +27°C° 0 mm 1 mps 670 mmHg 25%
    19:00 +25°C° 0 mm 1 mps 670 mmHg 29%
    20:00 +24°C° 0 mm 1 mps 670 mmHg 30%
    21:00 +24°C° 0 mm 1 mps 670 mmHg 31%
    22:00 +23°C° 0 mm 1 mps 670 mmHg 33%
    23:00 +22°C° 0 mm 1 mps 670 mmHg 34%
    Mostrar más